,,Stat5,,Stat1,,Stat2,,Stat3,,Stat4,,Wind1,,Wind1,
time,status,PA1M_AVG,status,PR1M_SUM,status,RH1M_AVG,status,SR1M_AVG,status,TA1M_AVG,status,W1dAve1m,status,W1sAve1m,
2001-02-04, 00:00:00,VALID,917.359,VALID,0,VALID,94.9088,VALID,-0.118866,VALID,18.5744,VALID,171,VALID,0.695095,
2001-02-04, 00:01:00,VALID,917.359,VALID,0,VALID,95.0664,VALID,-0.101885,VALID,18.5546,VALID,175,VALID,0.828795,
2001-02-04, 00:02:00,VALID,917.354,VALID,0,VALID,95.6704,VALID,-0.101885,VALID,18.568,VALID,190,VALID,1.08898,
2001-02-04, 00:03:00,VALID,917.336,VALID,0,VALID,95.7429,VALID,-0.118866,VALID,18.5804,VALID,181,VALID,1.07545,
2001-02-04, 00:04:00,VALID,917.331,VALID,0,VALID,95.5547,VALID,-0.118866,VALID,18.5837,VALID,184,VALID,1.13817,
2001-02-04, 00:05:00,VALID,917.334,VALID,0,VALID,95.3131,VALID,-0.101885,VALID,18.6095,VALID,180,VALID,1.0651,
2001-02-04, 00:06:00,VALID,917.322,VALID,0,VALID,94.8108,VALID,-0.118866,VALID,18.6162,VALID,163,VALID,0.794118,
2001-02-04, 00:07:00,VALID,917.321,VALID,0,VALID,94.362,VALID,-0.0339617,VALID,18.5924,VALID,153,VALID,0.770765,
2001-02-04, 00:08:00,VALID,917.31,VALID,0,VALID,94.3467,VALID,-0.0169808,VALID,18.5567,VALID,149,VALID,0.825284,
2001-02-04, 00:09:00,VALID,917.299,VALID,0,VALID,94.7473,VALID,-0.0169808,VALID,18.5147,VALID,153,VALID,0.895693,
2001-02-04, 00:10:00,VALID,917.274,VALID,0,VALID,94.9876,VALID,0,VALID,18.4886,VALID,152,VALID,0.887336,
2001-02-04, 00:11:00,VALID,917.262,VALID,0,VALID,95.0143,VALID,-0.0169808,VALID,18.469,VALID,147,VALID,0.872852,
2001-02-04, 00:12:00,VALID,917.239,VALID,0,VALID,95.0944,VALID,-0.0339617,VALID,18.4595,VALID,152,VALID,0.824013,
2001-02-04, 00:13:00,VALID,917.228,VALID,0,VALID,95.1949,VALID,0,VALID,18.4826,VALID,175,VALID,0.864844,
2001-02-04, 00:14:00,VALID,917.202,VALID,0,VALID,95.0461,VALID,-0.0169808,VALID,18.5052,VALID,180,VALID,0.61278,
2001-02-04, 00:15:00,VALID,917.183,VALID,0,VALID,94.5718,VALID,-0.0169808,VALID,18.5313,VALID,170,VALID,0.511133,
2001-02-04, 00:16:00,VALID,917.16,VALID,0,VALID,92.6377,VALID,-0.0169808,VALID,18.4342,VALID,147,VALID,0.513569,
2001-02-04, 00:17:00,VALID,917.13,VALID,0,VALID,93.4515,VALID,-0.0169808,VALID,18.3306,VALID,129,VALID,0.498242,
2001-02-04, 00:18:00,VALID,917.128,VALID,0,VALID,93.9449,VALID,-0.0169808,VALID,18.2242,VALID,127,VALID,0.163462,
2001-02-04, 00:19:00,VALID,917.107,VALID,0,VALID,94.7345,VALID,0,VALID,18.1631,VALID,127,VALID,0,
2001-02-04, 00:20:00,VALID,917.091,VALID,0,VALID,95.7226,VALID,0,VALID,18.1566,VALID,139,VALID,0,
2001-02-04, 00:21:00,VALID,917.073,VALID,0,VALID,96.3584,VALID,0,VALID,18.2175,VALID,151,VALID,0,
2001-02-04, 00:22:00,VALID,917.049,VALID,0,VALID,95.5789,VALID,-0.0169808,VALID,18.2796,VALID,125,VALID,0,
2001-02-04, 00:23:00,VALID,917.041,VALID,0,VALID,94.0135,VALID,0,VALID,18.2046,VALID,120,VALID,0,
2001-02-04, 00:24:00,VALID,917.02,VALID,0,VALID,94.8197,VALID,-0.0169808,VALID,18.15,VALID,120,VALID,0,
2001-02-04, 00:25:00,VALID,917.007,VALID,0,VALID,95.6984,VALID,-0.0339617,VALID,18.1691,VALID,136,VALID,0,
2001-02-04, 00:26:00,VALID,916.989,VALID,0,VALID,95.9298,VALID,0,VALID,18.2019,VALID,139,VALID,0,
2001-02-04, 00:27:00,VALID,917.008,VALID,0,VALID,95.7862,VALID,-0.0339617,VALID,18.2378,VALID,139,VALID,0,
2001-02-04, 00:28:00,VALID,916.993,VALID,0,VALID,96.0112,VALID,-0.0169808,VALID,18.2538,VALID,139,VALID,0,
2001-02-04, 00:29:00,VALID,917.003,VALID,0,VALID,95.7315,VALID,-0.0169808,VALID,18.2789,VALID,139,VALID,0,
2001-02-04, 00:30:00,VALID,917.011,VALID,0,VALID,93.557,VALID,-0.0339617,VALID,18.2148,VALID,138,VALID,0.322316,
2001-02-04, 00:31:00,VALID,917.006,VALID,0,VALID,93.4311,VALID,-0.0679233,VALID,18.0824,VALID,138,VALID,0.789648,
2001-02-04, 00:32:00,VALID,917.001,VALID,0,VALID,94.9482,VALID,-0.0339617,VALID,18.0667,VALID,139,VALID,0.749589,
2001-02-04, 00:33:00,VALID,916.97,VALID,0,VALID,95.8942,VALID,0,VALID,18.0662,VALID,142,VALID,0.854688,
2001-02-04, 00:34:00,VALID,916.966,VALID,0,VALID,96.6419,VALID,-0.0169808,VALID,18.1047,VALID,156,VALID,0.945112,
2001-02-04, 00:35:00,VALID,916.958,VALID,0,VALID,96.8212,VALID,-0.0339617,VALID,18.1825,VALID,164,VALID,0.897656,
2001-02-04, 00:36:00,VALID,916.947,VALID,0,VALID,96.4957,VALID,-0.0169808,VALID,18.2628,VALID,166,VALID,0.818668,
2001-02-04, 00:37:00,VALID,916.955,VALID,0,VALID,96.1308,VALID,-0.0169808,VALID,18.3308,VALID,169,VALID,0.808008,
2001-02-04, 00:38:00,VALID,916.961,VALID,0,VALID,95.8027,VALID,-0.0169808,VALID,18.412,VALID,175,VALID,0.782652,
2001-02-04, 00:39:00,VALID,916.951,VALID,0,VALID,95.3424,VALID,0,VALID,18.4568,VALID,175,VALID,0.769922,
2001-02-04, 00:40:00,VALID,916.937,VALID,0,VALID,95.1542,VALID,-0.0679233,VALID,18.4863,VALID,176,VALID,0.835321,
2001-02-04, 00:41:00,VALID,916.927,VALID,0,VALID,94.8986,VALID,0,VALID,18.4791,VALID,178,VALID,0.797852,
2001-02-04, 00:42:00,VALID,916.904,VALID,0,VALID,94.6532,VALID,-0.0509425,VALID,18.4662,VALID,181,VALID,0.780048,
2001-02-04, 00:43:00,VALID,916.884,VALID,0,VALID,94.9024,VALID,-0.0509425,VALID,18.4376,VALID,181,VALID,0.86543,
2001-02-04, 00:44:00,VALID,916.857,VALID,0,VALID,94.5158,VALID,-0.0169808,VALID,18.4019,VALID,175,VALID,0.764803,
2001-02-04, 00:45:00,VALID,916.836,VALID,0,VALID,94.7969,VALID,0,VALID,18.3804,VALID,174,VALID,0.694922,
2001-02-04, 00:46:00,VALID,916.813,VALID,0,VALID,94.4217,VALID,-0.0339617,VALID,18.331,VALID,176,VALID,0.567708,
2001-02-04, 00:47:00,VALID,916.81,VALID,0,VALID,94.7218,VALID,-0.0169808,VALID,18.2761,VALID,194,VALID,0.719531,
2001-02-04, 00:48:00,VALID,916.798,VALID,0,VALID,94.5921,VALID,-0.0169808,VALID,18.2145,VALID,197,VALID,0.735609,
2001-02-04, 00:49:00,VALID,916.784,VALID,0,VALID,94.8617,VALID,0,VALID,18.1536,VALID,192,VALID,0.943359,
2001-02-04, 00:50:00,VALID,916.779,VALID,0,VALID,95.5217,VALID,-0.0169808,VALID,18.1248,VALID,189,VALID,1.11619,
2001-02-04, 00:51:00,VALID,916.77,VALID,0,VALID,95.6069,VALID,-0.0169808,VALID,18.1082,VALID,196,VALID,1.14355,
2001-02-04, 00:52:00,VALID,916.749,VALID,0,VALID,95.5802,VALID,-0.0169808,VALID,18.0658,VALID,193,VALID,1.17681,
2001-02-04, 00:53:00,VALID,916.728,VALID,0,VALID,95.4733,VALID,0,VALID,18.0464,VALID,195,VALID,1.16426,
2001-02-04, 00:54:00,VALID,916.704,VALID,0,VALID,95.4034,VALID,0,VALID,17.9878,VALID,196,VALID,1.14303,
2001-02-04, 00:55:00,VALID,916.692,VALID,0,VALID,95.8853,VALID,-0.0169808,VALID,17.9691,VALID,195,VALID,1.18379,
2001-02-04, 00:56:00,VALID,916.685,VALID,0,VALID,96.2414,VALID,0,VALID,17.9564,VALID,194,VALID,1.12808,
2001-02-04, 00:57:00,VALID,916.664,VALID,0,VALID,96.5186,VALID,-0.0169808,VALID,17.9493,VALID,195,VALID,1.275,
2001-02-04, 00:58:00,VALID,916.666,VALID,0,VALID,96.6966,VALID,0,VALID,17.9693,VALID,196,VALID,1.28425,
2001-02-04, 00:59:00,VALID,916.64,VALID,0,VALID,96.6559,VALID,0,VALID,17.9919,VALID,193,VALID,1.30938,
2001-02-04, 01:00:00,VALID,916.639,VALID,0,VALID,96.5682,VALID,0.0169808,VALID,17.9954,VALID,191,VALID,1.34555,
2001-02-04, 01:01:00,VALID,916.629,VALID,0,VALID,96.4665,VALID,0,VALID,17.9919,VALID,192,VALID,1.32109,
2001-02-04, 01:02:00,VALID,916.609,VALID,0,VALID,96.469,VALID,-0.0169808,VALID,17.9952,VALID,192,VALID,1.3746,
2001-02-04, 01:03:00,VALID,916.584,VALID,0,VALID,96.4169,VALID,-0.0169808,VALID,17.9753,VALID,194,VALID,1.19395,
2001-02-04, 01:04:00,VALID,916.562,VALID,0,VALID,96.3062,VALID,0,VALID,17.979,VALID,197,VALID,1.10876,
2001-02-04, 01:05:00,VALID,916.53,VALID,0,VALID,96.2083,VALID,-0.0169808,VALID,17.9631,VALID,199,VALID,0.914844,
2001-02-04, 01:06:00,VALID,916.506,VALID,0,VALID,96.2592,VALID,0,VALID,17.9465,VALID,197,VALID,0.655849,
2001-02-04, 01:07:00,VALID,916.473,VALID,0,VALID,96.4398,VALID,0,VALID,17.9631,VALID,197,VALID,1.06035,
2001-02-04, 01:08:00,VALID,916.459,VALID,0,VALID,96.511,VALID,-0.0169808,VALID,17.9986,VALID,195,VALID,1.16632,
2001-02-04, 01:09:00,VALID,916.444,VALID,0,VALID,96.4347,VALID,-0.0169808,VALID,18.021,VALID,195,VALID,1.16309,
2001-02-04, 01:10:00,VALID,916.429,VALID,0,VALID,96.2567,VALID,-0.0169808,VALID,18.027,VALID,193,VALID,1.05909,
2001-02-04, 01:11:00,VALID,916.418,VALID,0,VALID,96.0901,VALID,0,VALID,18.0438,VALID,193,VALID,0.977539,
2001-02-04, 01:12:00,VALID,916.418,VALID,0,VALID,95.8739,VALID,-0.0339617,VALID,18.0508,VALID,197,VALID,0.716077,
2001-02-04, 01:13:00,VALID,916.406,VALID,0,VALID,95.7531,VALID,0,VALID,18.0279,VALID,200,VALID,0.817383,
2001-02-04, 01:14:00,VALID,916.398,VALID,0,VALID,96.0723,VALID,-0.0169808,VALID,18.0406,VALID,194,VALID,1.1871,
2001-02-04, 01:15:00,VALID,916.389,VALID,0,VALID,96.1206,VALID,0,VALID,18.0503,VALID,189,VALID,1.0502,
2001-02-04, 01:16:00,VALID,916.383,VALID,0,VALID,95.9591,VALID,0,VALID,18.063,VALID,185,VALID,0.922492,
2001-02-04, 01:17:00,VALID,916.362,VALID,0,VALID,95.6348,VALID,0,VALID,18.0466,VALID,180,VALID,0.470898,
2001-02-04, 01:18:00,VALID,916.368,VALID,0,VALID,94.1712,VALID,0,VALID,17.9698,VALID,179,VALID,0.226963,
2001-02-04, 01:19:00,VALID,916.351,VALID,0,VALID,93.5329,VALID,0,VALID,17.8337,VALID,177,VALID,0.264258,
2001-02-04, 01:20:00,VALID,916.346,VALID,0,VALID,93.866,VALID,0,VALID,17.7401,VALID,147,VALID,0.335526,
2001-02-04, 01:21:00,VALID,916.333,VALID,0,VALID,94.76,VALID,0,VALID,17.663,VALID,146,VALID,0.242773,
2001-02-04, 01:22:00,VALID,916.325,VALID,0,VALID,95.3335,VALID,-0.0169808,VALID,17.6079,VALID,146,VALID,0.120393,
2001-02-04, 01:23:00,VALID,916.295,VALID,0,VALID,96.0863,VALID,0,VALID,17.5851,VALID,169,VALID,0,
2001-02-04, 01:24:00,VALID,916.266,VALID,0,VALID,96.6788,VALID,0,VALID,17.5911,VALID,182,VALID,0,
2001-02-04, 01:25:00,VALID,916.251,VALID,0,VALID,96.7132,VALID,0,VALID,17.5978,VALID,183,VALID,0,
2001-02-04, 01:26:00,VALID,916.236,VALID,0,VALID,95.907,VALID,-0.0169808,VALID,17.5403,VALID,183,VALID,0,
2001-02-04, 01:27:00,VALID,916.222,VALID,0,VALID,95.6743,VALID,0,VALID,17.4656,VALID,182,VALID,0.0175781,
2001-02-04, 01:28:00,VALID,916.221,VALID,0,VALID,95.6908,VALID,-0.0169808,VALID,17.4202,VALID,181,VALID,0.196752,
2001-02-04, 01:29:00,VALID,916.223,VALID,0,VALID,95.2355,VALID,-0.0169808,VALID,17.3625,VALID,181,VALID,0.0496094,
2001-02-04, 01:30:00,VALID,916.225,VALID,0,VALID,95.3106,VALID,0,VALID,17.2656,VALID,181,VALID,0,
2001-02-04, 01:31:00,VALID,916.23,VALID,0,VALID,96.0634,VALID,0,VALID,17.2465,VALID,181,VALID,0.252734,
2001-02-04, 01:32:00,VALID,916.216,VALID,0,VALID,96.422,VALID,-0.0169808,VALID,17.2267,VALID,166,VALID,0.467105,
2001-02-04, 01:33:00,VALID,916.21,VALID,0,VALID,96.6915,VALID,-0.0169808,VALID,17.2073,VALID,157,VALID,0.524609,
2001-02-04, 01:34:00,VALID,916.205,VALID,0,VALID,97.0921,VALID,0,VALID,17.2501,VALID,160,VALID,0.649639,
2001-02-04, 01:35:00,VALID,916.164,VALID,0,VALID,97.7419,VALID,0,VALID,17.3046,VALID,172,VALID,0.877344,
2001-02-04, 01:36:00,VALID,916.145,VALID,0,VALID,98.0623,VALID,-0.0169808,VALID,17.4043,VALID,188,VALID,0.804688,
2001-02-04, 01:37:00,VALID,916.113,VALID,0,VALID,97.9657,VALID,0,VALID,17.4497,VALID,197,VALID,0.848437,
2001-02-04, 01:38:00,VALID,916.088,VALID,0,VALID,97.7686,VALID,-0.0339617,VALID,17.479,VALID,195,VALID,0.959335,
2001-02-04, 01:39:00,VALID,916.065,VALID,0,VALID,97.4748,VALID,-0.0679233,VALID,17.4893,VALID,198,VALID,0.83125,
2001-02-04, 01:40:00,VALID,916.049,VALID,0,VALID,97.4075,VALID,-0.0169808,VALID,17.4889,VALID,192,VALID,0.959293,
2001-02-04, 01:41:00,VALID,916.021,VALID,0,VALID,97.7546,VALID,0,VALID,17.5343,VALID,187,VALID,1.03301,
2001-02-04, 01:42:00,VALID,916,VALID,0,VALID,97.7978,VALID,-0.0339617,VALID,17.5986,VALID,178,VALID,1.03586,
2001-02-04, 01:43:00,VALID,915.978,VALID,0,VALID,97.5575,VALID,0,VALID,17.6406,VALID,188,VALID,0.986328,
2001-02-04, 01:44:00,VALID,915.957,VALID,0,VALID,97.2854,VALID,-0.0339617,VALID,17.6697,VALID,197,VALID,1.22451,
2001-02-04, 01:45:00,VALID,915.946,VALID,0,VALID,97.0107,VALID,0,VALID,17.6985,VALID,195,VALID,1.20195,
2001-02-04, 01:46:00,VALID,915.929,VALID,0,VALID,96.8505,VALID,-0.0169808,VALID,17.7181,VALID,194,VALID,1.19371,
2001-02-04, 01:47:00,VALID,915.907,VALID,0,VALID,96.5898,VALID,-0.0339617,VALID,17.7603,VALID,186,VALID,0.886328,
2001-02-04, 01:48:00,VALID,915.892,VALID,0,VALID,96.3622,VALID,-0.0339617,VALID,17.7603,VALID,195,VALID,0.907278,
2001-02-04, 01:49:00,VALID,915.875,VALID,0,VALID,96.3571,VALID,-0.0169808,VALID,17.773,VALID,195,VALID,1.23066,
2001-02-04, 01:50:00,VALID,915.861,VALID,0,VALID,96.0672,VALID,-0.0339617,VALID,17.815,VALID,189,VALID,1.27123,
2001-02-04, 01:51:00,VALID,915.828,VALID,0,VALID,95.3068,VALID,-0.0339617,VALID,17.8729,VALID,180,VALID,1.02891,
2001-02-04, 01:52:00,VALID,915.818,VALID,0,VALID,94.5235,VALID,-0.0509425,VALID,17.8895,VALID,174,VALID,0.514803,
2001-02-04, 01:53:00,VALID,915.796,VALID,0,VALID,94.5095,VALID,-0.0679233,VALID,17.8738,VALID,184,VALID,0.380664,
2001-02-04, 01:54:00,VALID,915.789,VALID,0,VALID,94.7066,VALID,-0.0679233,VALID,17.8383,VALID,185,VALID,0.65024,
2001-02-04, 01:55:00,VALID,915.778,VALID,0,VALID,94.779,VALID,-0.101885,VALID,17.8157,VALID,176,VALID,0.879687,
2001-02-04, 01:56:00,VALID,915.764,VALID,0,VALID,94.4014,VALID,-0.0679233,VALID,17.7933,VALID,169,VALID,0.717105,
2001-02-04, 01:57:00,VALID,915.753,VALID,0,VALID,94.0313,VALID,-0.0849042,VALID,17.7476,VALID,170,VALID,1.0623,
2001-02-04, 01:58:00,VALID,915.745,VALID,0,VALID,93.0776,VALID,-0.101885,VALID,17.7031,VALID,144,VALID,0.600962,
2001-02-04, 01:59:00,VALID,915.744,VALID,0,VALID,93.1578,VALID,-0.0679233,VALID,17.5896,VALID,149,VALID,0.627734,
2001-02-04, 02:00:00,VALID,915.749,VALID,0,VALID,94.4281,VALID,-0.101885,VALID,17.5767,VALID,164,VALID,0.601974,
2001-02-04, 02:01:00,VALID,915.732,VALID,0,VALID,94.2195,VALID,-0.101885,VALID,17.5449,VALID,175,VALID,0.445703,
2001-02-04, 02:02:00,VALID,915.719,VALID,0,VALID,94.2971,VALID,-0.0849042,VALID,17.493,VALID,156,VALID,0.654247,
2001-02-04, 02:03:00,VALID,915.711,VALID,0,VALID,94.8299,VALID,-0.0509425,VALID,17.4307,VALID,152,VALID,0.770703,
2001-02-04, 02:04:00,VALID,915.67,VALID,0,VALID,95.2483,VALID,-0.0509425,VALID,17.4312,VALID,163,VALID,1.20868,
2001-02-04, 02:05:00,VALID,915.653,VALID,0,VALID,94.732,VALID,-0.0849042,VALID,17.4992,VALID,173,VALID,0.939062,
2001-02-04, 02:06:00,VALID,915.649,VALID,0,VALID,94.2119,VALID,-0.101885,VALID,17.5474,VALID,166,VALID,0.769431,
2001-02-04, 02:07:00,VALID,915.633,VALID,0,VALID,93.3714,VALID,-0.0849042,VALID,17.538,VALID,158,VALID,0.532031,
2001-02-04, 02:08:00,VALID,915.616,VALID,0,VALID,94.1178,VALID,-0.0849042,VALID,17.5059,VALID,171,VALID,0.772204,
2001-02-04, 02:09:00,VALID,915.609,VALID,0,VALID,94.4103,VALID,-0.0679233,VALID,17.5057,VALID,176,VALID,0.718359,
2001-02-04, 02:10:00,VALID,915.601,VALID,0,VALID,94.3111,VALID,-0.0679233,VALID,17.5022,VALID,185,VALID,0.643429,
2001-02-04, 02:11:00,VALID,915.584,VALID,0,VALID,94.5985,VALID,-0.0509425,VALID,17.4928,VALID,197,VALID,0.995703,
2001-02-04, 02:12:00,VALID,915.583,VALID,0,VALID,94.7053,VALID,-0.0849042,VALID,17.4925,VALID,190,VALID,1.13363,
2001-02-04, 02:13:00,VALID,915.558,VALID,0,VALID,94.5654,VALID,-0.0679233,VALID,17.4992,VALID,187,VALID,0.962695,
2001-02-04, 02:14:00,VALID,915.546,VALID,0,VALID,94.4713,VALID,-0.0679233,VALID,17.5054,VALID,194,VALID,1.15565,
2001-02-04, 02:15:00,VALID,915.532,VALID,0,VALID,94.3454,VALID,-0.0509425,VALID,17.5149,VALID,192,VALID,1.15469,
2001-02-04, 02:16:00,VALID,915.513,VALID,0,VALID,94.0759,VALID,-0.0849042,VALID,17.5278,VALID,191,VALID,0.953536,
2001-02-04, 02:17:00,VALID,915.498,VALID,0,VALID,94.1064,VALID,-0.0679233,VALID,17.5322,VALID,190,VALID,0.932031,
2001-02-04, 02:18:00,VALID,915.48,VALID,0,VALID,94.1343,VALID,-0.101885,VALID,17.5126,VALID,194,VALID,0.838742,
2001-02-04, 02:19:00,VALID,915.456,VALID,0,VALID,94.4306,VALID,-0.0849042,VALID,17.4958,VALID,192,VALID,1.10137,
2001-02-04, 02:20:00,VALID,915.428,VALID,0,VALID,94.6252,VALID,-0.0679233,VALID,17.5317,VALID,190,VALID,1.12603,
2001-02-04, 02:21:00,VALID,915.41,VALID,0,VALID,94.2615,VALID,-0.0339617,VALID,17.5834,VALID,188,VALID,0.983594,
2001-02-04, 02:22:00,VALID,915.384,VALID,0,VALID,93.8775,VALID,-0.0679233,VALID,17.6251,VALID,185,VALID,1.05929,
2001-02-04, 02:23:00,VALID,915.352,VALID,0,VALID,93.5532,VALID,-0.0339617,VALID,17.6764,VALID,182,VALID,1.11309,
2001-02-04, 02:24:00,VALID,915.326,VALID,0,VALID,93.084,VALID,-0.0509425,VALID,17.7666,VALID,183,VALID,1.12479,
2001-02-04, 02:25:00,VALID,915.317,VALID,0,VALID,92.4495,VALID,-0.0679233,VALID,17.8577,VALID,185,VALID,0.963477,
2001-02-04, 02:26:00,VALID,915.334,VALID,0,VALID,92.3045,VALID,-0.0679233,VALID,17.8957,VALID,190,VALID,1.19812,
2001-02-04, 02:27:00,VALID,915.33,VALID,0,VALID,92.2803,VALID,-0.0339617,VALID,17.9057,VALID,201,VALID,1.19238,
2001-02-04, 02:28:00,VALID,915.327,VALID,0,VALID,92.1456,VALID,-0.0509425,VALID,17.9285,VALID,199,VALID,1.13507,
2001-02-04, 02:29:00,VALID,915.34,VALID,0,VALID,91.8213,VALID,-0.0679233,VALID,17.9444,VALID,195,VALID,1.23125,
2001-02-04, 02:30:00,VALID,915.32,VALID,0,VALID,91.3979,VALID,-0.0679233,VALID,17.9799,VALID,195,VALID,1.15525,
2001-02-04, 02:31:00,VALID,915.321,VALID,0,VALID,91.7081,VALID,-0.0339617,VALID,17.9444,VALID,201,VALID,1.1123,
2001-02-04, 02:32:00,VALID,915.318,VALID,0,VALID,92.1087,VALID,-0.0509425,VALID,17.9031,VALID,204,VALID,0.641859,
2001-02-04, 02:33:00,VALID,915.314,VALID,0,VALID,92.4393,VALID,-0.0339617,VALID,17.848,VALID,202,VALID,0.80293,
2001-02-04, 02:34:00,VALID,915.297,VALID,0,VALID,92.7737,VALID,-0.0679233,VALID,17.7799,VALID,204,VALID,0.599359,
2001-02-04, 02:35:00,VALID,915.306,VALID,0,VALID,93.2785,VALID,-0.0849042,VALID,17.7188,VALID,209,VALID,0.677539,
2001-02-04, 02:36:00,VALID,915.299,VALID,0,VALID,94.0046,VALID,-0.0679233,VALID,17.6637,VALID,219,VALID,0.912829,
2001-02-04, 02:37:00,VALID,915.3,VALID,0,VALID,94.5006,VALID,-0.0849042,VALID,17.6249,VALID,227,VALID,1.10762,
2001-02-04, 02:38:00,VALID,915.314,VALID,0,VALID,95.069,VALID,-0.0509425,VALID,17.609,VALID,224,VALID,1.46334,
2001-02-04, 02:39:00,VALID,915.315,VALID,0,VALID,95.6526,VALID,-0.0339617,VALID,17.5887,VALID,219,VALID,1.55918,
2001-02-04, 02:40:00,VALID,915.326,VALID,0,VALID,95.8599,VALID,-0.0679233,VALID,17.5924,VALID,223,VALID,1.19223,
2001-02-04, 02:41:00,VALID,915.331,VALID,0,VALID,95.8154,VALID,-0.0849042,VALID,17.5829,VALID,224,VALID,0.797461,
2001-02-04, 02:42:00,VALID,915.327,VALID,0,VALID,95.851,VALID,-0.101885,VALID,17.573,VALID,212,VALID,0.597957,
2001-02-04, 02:43:00,VALID,915.329,VALID,0,VALID,95.8027,VALID,-0.0679233,VALID,17.5576,VALID,210,VALID,0.513672,
2001-02-04, 02:44:00,VALID,915.325,VALID,0,VALID,95.7302,VALID,-0.0509425,VALID,17.5209,VALID,201,VALID,0.535156,
2001-02-04, 02:45:00,VALID,915.329,VALID,0,VALID,95.8408,VALID,-0.0849042,VALID,17.4925,VALID,200,VALID,0.56582,
2001-02-04, 02:46:00,VALID,915.336,VALID,0,VALID,95.865,VALID,-0.0679233,VALID,17.4538,VALID,207,VALID,0.706731,
2001-02-04, 02:47:00,VALID,915.344,VALID,0,VALID,96.1918,VALID,-0.0679233,VALID,17.4247,VALID,199,VALID,1.11289,
2001-02-04, 02:48:00,VALID,915.335,VALID,0,VALID,96.4576,VALID,-0.0849042,VALID,17.4284,VALID,198,VALID,1.11698,
2001-02-04, 02:49:00,VALID,915.342,VALID,0,VALID,96.6788,VALID,-0.0509425,VALID,17.4538,VALID,200,VALID,1.10352,
2001-02-04, 02:50:00,VALID,915.354,VALID,0,VALID,96.511,VALID,-0.0679233,VALID,17.4701,VALID,193,VALID,0.778446,
2001-02-04, 02:51:00,VALID,915.345,VALID,0,VALID,96.4207,VALID,-0.0679233,VALID,17.4861,VALID,187,VALID,0.506641,
2001-02-04, 02:52:00,VALID,915.339,VALID,0,VALID,96.2884,VALID,-0.0169808,VALID,17.479,VALID,185,VALID,0.433594,
2001-02-04, 02:53:00,VALID,915.341,VALID,0,VALID,96.1091,VALID,0,VALID,17.4721,VALID,185,VALID,0.551758,
2001-02-04, 02:54:00,VALID,915.344,VALID,0,VALID,96.2783,VALID,0.0169808,VALID,17.4684,VALID,178,VALID,0.585136,
2001-02-04, 02:55:00,VALID,915.335,VALID,0,VALID,95.7404,VALID,0.0509425,VALID,17.4499,VALID,176,VALID,0.312109,
2001-02-04, 02:56:00,VALID,915.341,VALID,0,VALID,95.3792,VALID,0,VALID,17.3883,VALID,166,VALID,0.40111,
2001-02-04, 02:57:00,VALID,915.338,VALID,0,VALID,95.275,VALID,0.0169808,VALID,17.3199,VALID,153,VALID,0.283203,
2001-02-04, 02:58:00,VALID,915.333,VALID,0,VALID,95.4416,VALID,0.0169808,VALID,17.2719,VALID,147,VALID,0.489984,
2001-02-04, 02:59:00,VALID,915.324,VALID,0,VALID,95.9883,VALID,0.0849042,VALID,17.2392,VALID,146,VALID,0.526172,
2001-02-04, 03:00:00,VALID,915.31,VALID,0,VALID,96.5008,VALID,0.0339617,VALID,17.2721,VALID,151,VALID,0.692229,
2001-02-04, 03:01:00,VALID,915.301,VALID,0,VALID,96.5364,VALID,0.0339617,VALID,17.2781,VALID,152,VALID,0.705859,
2001-02-04, 03:02:00,VALID,915.283,VALID,0,VALID,96.3329,VALID,0.0509425,VALID,17.2908,VALID,152,VALID,0.567909,
2001-02-04, 03:03:00,VALID,915.273,VALID,0,VALID,95.8981,VALID,0.0169808,VALID,17.2753,VALID,152,VALID,0.622852,
2001-02-04, 03:04:00,VALID,915.261,VALID,0,VALID,96.2973,VALID,0.0169808,VALID,17.2751,VALID,152,VALID,0.479646,
2001-02-04, 03:05:00,VALID,915.246,VALID,0,VALID,96.4601,VALID,0.0849042,VALID,17.2943,VALID,152,VALID,0.627539,
2001-02-04, 03:06:00,VALID,915.227,VALID,0,VALID,96.3851,VALID,0.0679233,VALID,17.3007,VALID,152,VALID,0.559495,
2001-02-04, 03:07:00,VALID,915.24,VALID,0,VALID,96.3622,VALID,-0.0169808,VALID,17.302,VALID,152,VALID,0.546875,
2001-02-04, 03:08:00,VALID,915.232,VALID,0,VALID,96.0265,VALID,-0.0849042,VALID,17.2859,VALID,152,VALID,0.412623,
2001-02-04, 03:09:00,VALID,915.226,VALID,0,VALID,95.4962,VALID,-0.0679233,VALID,17.2181,VALID,152,VALID,0.291016,
2001-02-04, 03:10:00,VALID,915.229,VALID,0,VALID,95.7493,VALID,-0.0849042,VALID,17.1501,VALID,152,VALID,0.129297,
2001-02-04, 03:11:00,VALID,915.229,VALID,0,VALID,95.804,VALID,-0.0679233,VALID,17.1406,VALID,151,VALID,0.0345703,
2001-02-04, 03:12:00,VALID,915.215,VALID,0,VALID,95.7455,VALID,-0.0509425,VALID,17.0792,VALID,145,VALID,0,
2001-02-04, 03:13:00,VALID,915.214,VALID,0,VALID,95.9464,VALID,-0.0849042,VALID,17.0508,VALID,145,VALID,0,
2001-02-04, 03:14:00,VALID,915.208,VALID,0,VALID,95.9222,VALID,-0.101885,VALID,17.0119,VALID,143,VALID,0,
2001-02-04, 03:15:00,VALID,915.203,VALID,0,VALID,96.2834,VALID,-0.101885,VALID,16.9729,VALID,133,VALID,0,
2001-02-04, 03:16:00,VALID,915.177,VALID,0,VALID,96.5377,VALID,-0.0679233,VALID,16.9503,VALID,123,VALID,0.733141,
2001-02-04, 03:17:00,VALID,915.166,VALID,0,VALID,97.115,VALID,-0.0849042,VALID,16.9535,VALID,122,VALID,0.779688,
2001-02-04, 03:18:00,VALID,915.155,VALID,0,VALID,97.5194,VALID,-0.101885,VALID,17.067,VALID,122,VALID,0.494191,
2001-02-04, 03:19:00,VALID,915.144,VALID,0,VALID,97.1798,VALID,-0.0849042,VALID,17.1283,VALID,123,VALID,0.437891,
2001-02-04, 03:20:00,VALID,915.14,VALID,0,VALID,97.0908,VALID,-0.101885,VALID,17.1931,VALID,123,VALID,0.287829,
2001-02-04, 03:21:00,VALID,915.14,VALID,0,VALID,96.7742,VALID,-0.101885,VALID,17.2637,VALID,146,VALID,0.310156,
2001-02-04, 03:22:00,VALID,915.146,VALID,0,VALID,96.015,VALID,-0.0339617,VALID,17.3046,VALID,193,VALID,0.116587,
2001-02-04, 03:23:00,VALID,915.148,VALID,0,VALID,95.4848,VALID,0.0169808,VALID,17.3141,VALID,199,VALID,0.00429688,
2001-02-04, 03:24:00,VALID,915.156,VALID,0,VALID,95.2457,VALID,0.0169808,VALID,17.2912,VALID,198,VALID,0,
2001-02-04, 03:25:00,VALID,915.157,VALID,0,VALID,95.1936,VALID,0.0169808,VALID,17.2691,VALID,171,VALID,0.648828,
2001-02-04, 03:26:00,VALID,915.149,VALID,0,VALID,95.5089,VALID,0,VALID,17.2723,VALID,168,VALID,0.968149,
2001-02-04, 03:27:00,VALID,915.145,VALID,0,VALID,95.275,VALID,0.0169808,VALID,17.291,VALID,165,VALID,0.858594,
2001-02-04, 03:28:00,VALID,915.14,VALID,0,VALID,94.5285,VALID,0,VALID,17.2981,VALID,151,VALID,0.610403,
2001-02-04, 03:29:00,VALID,915.132,VALID,0,VALID,94.7485,VALID,0.0339617,VALID,17.2727,VALID,162,VALID,0.794727,
2001-02-04, 03:30:00,VALID,915.136,VALID,0,VALID,95.1109,VALID,0.0169808,VALID,17.2984,VALID,178,VALID,0.741186,
2001-02-04, 03:31:00,VALID,915.145,VALID,0,VALID,94.8515,VALID,0,VALID,17.386,VALID,187,VALID,0.75957,
2001-02-04, 03:32:00,VALID,915.148,VALID,0,VALID,94.3238,VALID,0,VALID,17.4469,VALID,189,VALID,0.686678,